Wind from 020 at 14 knots

Air temperature 9.0° C
Dewpoint 3.0° C

Last reported at 2014-Apr-23 08:20 UTC.
Time now 2014-Apr-23 09:41 UTC

Location: N 56°44' E 016°18'.
View on Google Maps.

See reports from other nearby stations

Tides Stations Pressure Air Temp Water Temp Dewpoint Dewpoint depression Visibility Wind Speed Wind Dir Waves Ship positions

  
sailing weather and tide predictions

KALMAR weather

date/time (UTC)wind fromknots sea level pressurealtimeterstation pressurevisibilityair tempwater tempwave heightnotes
2014-Apr-23 08:20 020 14 9.0
2014-Apr-23 07:50 030 13 9.0
2014-Apr-23 07:20 020 14 8.0
2014-Apr-23 06:50 020 15 8.0
2014-Apr-23 06:20 020 13 7.0
2014-Apr-23 05:50 020 13 7.0
2014-Apr-23 05:20 020 10 7.0
2014-Apr-23 04:50 020 9 6.0
2014-Apr-23 04:20 010 8 6.0
2014-Apr-23 03:50 010 8 5.0
2014-Apr-23 03:20 010 8 5.4 5.0
2014-Apr-23 02:50 360 7 5.4 5.0
2014-Apr-23 02:20 360 7 5.4 5.0
2014-Apr-23 01:50 360 7 5.4 5.0
2014-Apr-23 01:20 010 8 5.4 6.0
2014-Apr-23 00:50 010 8 5.4 6.0
2014-Apr-23 00:20 010 9 5.4 6.0
2014-Apr-22 23:50 010 9 5.4 6.0
2014-Apr-22 23:20 360 6 5.4 6.0
2014-Apr-22 22:50 010 7 5.4 7.0
2014-Apr-22 22:20 010 7 5.4 7.0
2014-Apr-22 21:50 360 6 5.4 7.0
2014-Apr-22 21:20 340 5 5.4 4.0
2014-Apr-22 20:50 360 5 5.4 7.0
2014-Apr-22 20:20 360 5 5.4 7.0
2014-Apr-22 19:50 360 5 7.0
2014-Apr-22 19:20 360 5 8.0
2014-Apr-22 18:50 010 7 8.0
2014-Apr-22 18:20 010 7 9.0
2014-Apr-22 17:50 020 9 10.0
2014-Apr-22 17:20 020 9 11.0
2014-Apr-22 16:50 020 8 12.0
2014-Apr-22 16:20 020 7 12.0
2014-Apr-22 15:50 010 8 13.0
2014-Apr-22 15:20 020 10 13.0
2014-Apr-22 14:50 020 9 13.0
2014-Apr-22 14:20 020 10 13.0
2014-Apr-22 13:50 050 8 13.0
2014-Apr-22 13:20 050 9 13.0
2014-Apr-22 12:50 050 12 13.0
2014-Apr-22 12:20 040 9 14.0
2014-Apr-22 11:50 030 9 14.0
2014-Apr-22 11:20 020 10 14.0
2014-Apr-22 10:50 020 10 13.0
2014-Apr-22 10:20 020 8 12.0
2014-Apr-22 09:50 020 10 11.0
2014-Apr-22 09:20 020 8 11.0
2014-Apr-22 08:50 020 9 11.0
2014-Apr-22 08:20 040 10 11.0
2014-Apr-22 07:50 030 11 11.0
2014-Apr-22 07:20 030 10 11.0
2014-Apr-22 06:50 030 10 10.0
2014-Apr-22 06:20 010 8 11.0
2014-Apr-22 05:50 020 7 10.0
2014-Apr-22 05:20 010 6 9.0
2014-Apr-22 04:50 010 7 8.0
2014-Apr-22 04:20 010 6 8.0
2014-Apr-22 03:50 010 6 5.4 8.0
2014-Apr-22 03:20 010 6 5.4 8.0
2014-Apr-22 02:50 010 7 5.4 8.0
2014-Apr-22 02:20 360 7 5.4 8.0 Light drizzle.
2014-Apr-22 01:50 360 7 5.4 8.0
2014-Apr-22 01:20 350 8 5.4 8.0 Light rain.
2014-Apr-22 00:50 360 8 5.4 8.0 Light rain.
2014-Apr-22 00:20 350 9 5.4 8.0 Light drizzle.
2014-Apr-21 23:50 360 9 5.4 8.0
2014-Apr-21 23:20 360 9 5.4 8.0
2014-Apr-21 22:50 350 6 5.4 8.0
2014-Apr-21 22:20 340 5 5.4 8.0
2014-Apr-21 21:50 320 3 5.4 7.0
2014-Apr-21 21:20 5.4 7.0
2014-Apr-21 20:50 030 4 5.4 7.0
2014-Apr-21 20:20 5.4 9.0
2014-Apr-21 19:50 010 5 9.0
2014-Apr-21 19:20 360 7 10.0
2014-Apr-21 18:50 010 6 10.0
2014-Apr-21 18:20 360 4 10.0
2014-Apr-21 17:50 020 3 10.0
2014-Apr-21 17:20 040 4 10.0
2014-Apr-21 16:50 050 5 11.0
2014-Apr-21 16:20 020 7 12.0
2014-Apr-21 15:50 030 8 11.0
2014-Apr-21 15:20 040 9 11.0
2014-Apr-21 14:50 040 10 12.0
2014-Apr-21 14:20 050 9 12.0
2014-Apr-21 13:50 040 11 12.0
2014-Apr-21 13:20 030 11 12.0
2014-Apr-21 12:50 030 9 12.0
2014-Apr-21 12:20 020 10 13.0
2014-Apr-21 11:50 040 9 12.0
2014-Apr-21 11:20 040 10 12.0
2014-Apr-21 10:50 030 10 13.0
2014-Apr-21 10:20 020 9 12.0
2014-Apr-21 09:50 030 12 11.0
2014-Apr-21 09:20 030 12 11.0